Wind_Speed
34 33 33 33 34 33 32 30 29 26 24 23 21 20 19 19 19 18 18 18 17 17 17 17 16 16 17 16 17 17 15 15 15 14 13 13 14 13 13 13 14 15 15 16
34 33 32 33 34 33 33 31 30 28 26 24 23 22 21 20 20 19 19 18 18 18 18 17 17 17 17 16 16 16 16 15 14 13 14 14 14 14 14 14 15 16 16 16
31 32 32 34 33 33 32 31 30 29 27 26 24 23 22 21 21 21 20 20 19 19 19 18 18 18 18 17 17 16 15 14 13 13 14 15 15 16 16 16 16 16 17 17
29 31 32 32 31 31 31 30 29 29 27 26 25 24 23 22 22 21 21 20 20 20 19 19 19 18 18 18 17 17 16 15 15 15 16 16 17 17 18 18 18 18 18 19
30 29 30 31 30 30 29 29 28 27 26 25 24 24 23 23 23 23 23 21 20 20 19 19 19 18 18 18 18 17 16 16 16 17 17 17 18 18 18 19 19 19 19 19
31 28 29 30 29 29 28 28 28 27 25 25 24 23 23 22 22 22 22 21 20 20 20 20 20 19 18 18 17 17 17 17 18 18 18 18 19 19 19 20 20 20 20 20
31 28 28 29 29 28 28 28 27 26 25 24 24 23 21 21 21 22 21 21 21 21 20 20 19 19 18 18 18 18 18 18 19 19 19 19 19 19 19 19 20 20 20 20
30 28 28 29 29 29 28 27 26 25 25 24 24 23 22 22 22 22 21 22 21 21 20 19 19 19 19 19 19 18 18 18 19 19 20 20 19 19 19 20 21 21 21 21
30 28 28 27 27 28 28 27 26 26 25 24 24 24 23 22 22 22 22 22 22 21 20 19 19 20 20 19 19 20 19 19 19 19 19 19 19 19 20 21 21 21 21 21
29 27 26 25 25 27 27 27 27 26 26 25 24 24 23 23 22 22 23 23 22 21 21 21 21 20 20 20 21 20 20 20 20 20 20 20 21 21 21 21 21 21 22 21
28 27 25 25 26 26 27 27 26 27 27 26 25 25 25 24 24 23 23 23 22 22 21 21 20 20 20 20 20 20 21 21 21 21 21 21 22 22 21 21 21 22 22 22
27 26 26 25 26 26 26 26 26 26 27 26 26 25 25 24 24 23 23 23 23 22 21 20 20 20 21 22 21 21 21 21 21 22 21 21 22 22 22 22 23 22 22 22
28 27 26 26 25 25 25 25 26 26 27 26 26 26 25 25 23 23 24 24 24 23 22 20 20 21 21 22 22 22 21 21 21 21 21 21 21 22 22 22 22 22 22 22
29 27 26 25 25 26 26 26 26 26 27 27 27 26 25 24 24 24 24 23 23 22 21 21 21 22 22 22 22 21 21 21 21 21 21 21 22 22 22 22 21 21 22 23
29 28 27 26 26 26 27 27 28 28 28 27 27 27 26 26 26 25 24 24 24 24 23 22 22 22 21 22 21 21 21 20 20 20 20 21 21 22 22 22 22 22 23 23
29 28 28 27 26 26 27 27 28 29 29 28 28 28 28 28 27 26 26 26 25 25 24 23 23 22 22 21 21 21 21 21 21 21 21 22 22 22 22 22 22 23 23 24
29 29 29 28 28 27 27 27 27 28 28 29 29 29 29 28 27 27 26 26 26 25 24 24 24 23 23 22 22 21 22 22 22 22 22 21 22 22 22 22 23 24 24 24
28 28 28 28 27 27 27 27 27 27 27 27 28 28 27 27 27 26 26 26 26 26 25 24 24 23 23 22 22 22 22 22 23 23 22 22 22 22 23 24 24 24 25 25
26 26 27 27 27 26 26 26 26 26 26 26 27 27 27 26 25 25 25 25 25 25 25 24 24 24 23 22 23 23 23 23 23 22 22 23 23 23 23 24 24 24 25 26
26 27 27 27 27 27 27 26 25 24 24 24 24 24 25 24 24 23 24 24 25 25 25 25 24 24 23 22 22 22 23 23 23 22 23 23 23 24 24 24 24 25 26 26
27 27 27 27 27 28 27 25 24 24 24 23 22 22 23 23 23 24 24 24 23 23 23 23 23 23 23 22 22 22 22 22 23 23 23 23 23 24 24 24 24 25 26 27
27 27 26 26 26 26 26 25 24 24 23 23 23 23 23 23 24 24 24 23 23 23 23 23 23 23 22 22 22 22 22 22 23 22 22 23 23 23 23 24 24 25 26 26
26 26 26 26 26 26 26 25 25 25 24 24 24 24 24 23 24 24 24 23 23 23 23 22 22 22 22 22 22 22 22 22 22 22 22 22 22 23 23 24 24 25 25 26
25 26 26 26 26 26 26 25 25 25 24 24 24 24 24 24 24 24 24 24 23 23 23 22 22 22 22 22 22 22 22 22 22 22 22 23 23 23 24 24 25 26 26 27
24 25 25 25 25 26 26 26 26 25 24 23 23 24 24 24 24 24 24 24 23 23 23 23 22 22 22 22 22 22 22 22 22 22 22 22 22 23 23 24 25 25 26 27
24 24 24 25 25 25 25 25 25 24 24 24 24 24 24 23 23 23 23 23 23 23 23 22 21 21 21 22 22 22 22 22 22 22 22 22 22 22 23 23 24 25 26 26
24 24 25 25 25 25 25 24 23 23 22 22 23 23 23 23 22 22 22 22 22 22 22 21 21 21 21 21 21 22 22 22 22 22 22 22 22 22 23 24 24 25 26 26
Wind_Direction
221 224 226 227 228 229 230 231 234 237 235 238 239 239 239 241 244 248 252 257 265 267 269 274 280 285 286 291 297 300 299 298 298 298 299 299 298 296 296 299 300 301 302 299
222 224 226 226 226 227 229 231 233 235 236 234 237 238 237 240 243 247 249 255 263 265 267 272 277 281 285 289 293 298 301 300 298 295 297 297 298 300 300 300 299 299 300 299
222 224 226 227 226 227 228 230 232 234 236 236 236 235 235 238 242 245 248 252 258 264 266 270 273 278 282 285 288 293 296 296 298 298 300 299 299 299 300 301 300 298 297 296
220 223 224 226 225 226 228 229 230 232 234 236 235 233 233 235 239 242 246 251 257 262 265 268 272 276 280 282 285 288 289 291 294 295 299 299 298 298 300 301 301 298 296 295
216 222 225 226 225 225 226 228 229 230 232 234 235 234 233 234 237 241 245 250 254 258 263 268 271 275 278 279 281 284 287 289 294 297 299 301 299 297 298 300 299 297 294 295
215 217 224 225 224 224 224 227 227 229 230 232 233 232 234 236 239 242 244 248 251 256 261 265 269 272 273 276 278 280 282 286 291 296 299 300 301 298 300 302 302 299 296 295
214 217 224 224 222 222 223 226 227 230 231 231 231 232 235 235 236 239 242 245 249 254 259 262 265 268 271 274 277 278 282 286 290 293 297 300 300 299 300 302 302 300 298 298
213 216 225 223 221 221 224 225 226 229 230 230 231 231 232 233 234 238 242 245 249 253 257 259 263 267 269 273 275 278 283 286 288 291 294 297 297 298 299 301 303 301 299 299
214 217 222 223 223 223 223 224 225 227 228 230 231 231 230 231 233 238 242 246 249 252 256 260 265 267 269 271 273 278 281 285 288 289 291 294 296 296 298 301 302 301 301 300
217 219 221 223 223 224 224 224 224 225 227 229 230 229 229 230 233 237 241 246 251 254 256 260 265 266 267 270 274 275 279 284 287 289 291 292 294 295 297 299 300 300 301 300
216 217 219 223 224 223 223 224 224 225 225 227 228 230 231 232 235 238 243 246 251 254 258 260 263 266 269 271 273 275 280 284 287 289 290 291 293 294 295 296 298 299 300 300
214 216 220 222 222 222 223 224 224 224 224 226 228 230 232 233 236 240 244 247 250 252 255 257 261 265 269 272 274 278 281 282 286 288 290 291 293 294 293 294 295 298 299 300
216 218 220 221 223 222 223 223 224 224 224 227 228 230 232 235 237 241 243 246 248 250 253 257 262 267 271 273 274 276 278 282 287 288 289 290 291 293 292 293 295 296 298 300
216 218 220 221 224 224 224 225 225 225 226 228 231 232 235 238 240 243 245 247 248 249 254 260 264 268 270 272 273 275 277 282 287 288 289 290 290 291 292 294 295 295 297 300
217 219 222 223 224 225 225 226 227 227 228 231 233 236 238 240 241 244 246 247 249 252 255 260 265 267 270 272 274 276 278 282 286 287 288 290 291 292 293 295 295 296 297 299
220 222 223 223 223 224 226 227 228 229 231 233 236 238 240 240 240 242 244 246 250 253 255 259 263 267 270 272 274 275 278 282 285 287 287 288 289 291 293 294 296 297 298 299
221 222 223 222 223 224 226 227 228 230 232 234 237 239 239 240 241 242 244 245 248 250 253 259 262 265 268 271 273 275 278 281 284 286 287 288 288 290 292 294 295 297 299 300
221 223 222 222 223 225 226 227 229 229 231 234 236 236 237 240 241 241 243 245 247 249 252 257 261 264 268 270 272 274 277 279 282 283 284 285 287 289 292 294 295 297 299 299
220 221 221 222 223 224 226 228 229 229 230 233 234 235 236 237 240 241 243 245 245 248 252 257 261 265 267 270 272 274 276 279 281 281 282 283 286 288 291 293 294 296 299 300
219 220 221 223 224 224 225 226 228 228 229 231 232 232 233 235 236 238 242 245 248 251 255 259 262 266 267 269 272 274 276 278 280 281 282 283 284 287 290 292 294 296 298 300
218 220 222 223 224 224 224 225 226 227 228 231 232 232 234 235 236 239 243 246 249 251 254 257 260 264 266 269 272 274 276 278 279 281 282 284 286 289 291 293 295 297 299 300
219 220 221 223 224 224 225 226 227 228 230 230 230 232 234 236 238 240 244 247 250 253 255 257 259 262 265 268 271 274 275 277 280 282 284 286 287 289 290 293 295 298 300 301
219 218 219 220 221 223 225 226 226 228 230 231 231 233 235 238 240 242 246 247 248 250 253 257 260 262 265 268 271 273 275 278 280 282 283 285 287 289 291 293 295 297 299 301
216 217 218 218 219 222 225 226 226 227 230 232 232 234 236 239 241 244 246 247 247 249 253 257 261 263 265 267 270 272 275 277 279 280 281 283 286 289 291 292 295 297 299 301
217 216 216 218 218 220 224 226 228 229 230 232 233 235 237 239 240 241 243 246 248 249 252 257 261 264 265 266 268 270 273 276 279 280 282 285 287 289 291 294 296 298 301 303
215 215 216 217 219 222 225 226 228 229 231 232 233 233 234 237 240 242 244 246 247 250 253 256 261 265 267 268 268 271 273 275 278 279 282 285 289 292 294 296 299 300 302 304
216 218 220 221 222 223 223 225 228 231 231 230 231 232 234 237 240 241 244 245 247 249 252 258 262 265 267 269 270 271 272 274 276 279 282 285 289 292 296 298 301 302 304 305
Height
5844 5848 5853 5858 5863 5868 5872 5877 5882 5886 5889 5891 5893 5896 5898 5900 5901 5903 5904 5905 5906 5906 5906 5905 5905 5904 5903 5902 5900 5898 5896 5895 5893 5892 5891 5890 5888 5887 5886 5884 5883 5882 5880 5879
5837 5842 5847 5851 5856 5861 5866 5871 5875 5879 5882 5886 5888 5891 5893 5895 5897 5899 5900 5901 5901 5902 5902 5901 5901 5901 5900 5898 5897 5896 5894 5891 5889 5889 5888 5887 5885 5884 5882 5881 5880 5878 5877 5876
5832 5837 5841 5845 5850 5855 5860 5864 5869 5873 5877 5879 5882 5885 5888 5890 5892 5894 5895 5896 5897 5897 5897 5897 5897 5897 5896 5895 5894 5892 5891 5889 5887 5886 5885 5884 5882 5881 5879 5878 5876 5875 5874 5872
5827 5831 5836 5842 5845 5850 5854 5858 5863 5867 5870 5873 5877 5880 5882 5885 5887 5889 5890 5891 5892 5893 5893 5893 5893 5893 5892 5891 5890 5889 5887 5886 5885 5884 5882 5880 5879 5877 5875 5874 5872 5871 5869 5868
5822 5826 5830 5835 5839 5844 5849 5853 5857 5861 5864 5868 5870 5874 5877 5879 5881 5883 5885 5886 5887 5888 5888 5888 5888 5888 5888 5887 5886 5885 5884 5883 5882 5880 5879 5877 5875 5873 5871 5870 5868 5866 5865 5864
5816 5821 5825 5830 5834 5839 5844 5847 5851 5855 5859 5862 5865 5869 5871 5874 5876 5878 5880 5881 5882 5883 5883 5884 5884 5883 5883 5882 5882 5881 5880 5879 5878 5877 5875 5873 5871 5869 5867 5866 5864 5862 5860 5859
5810 5816 5820 5824 5828 5833 5839 5843 5846 5849 5853 5857 5860 5863 5866 5868 5870 5872 5874 5876 5877 5878 5879 5879 5879 5878 5878 5878 5877 5876 5876 5875 5874 5872 5871 5869 5867 5865 5863 5861 5860 5858 5856 5854
5805 5811 5816 5818 5823 5828 5832 5836 5840 5844 5848 5851 5854 5857 5860 5863 5865 5867 5869 5871 5872 5873 5873 5874 5874 5874 5873 5873 5872 5871 5870 5870 5869 5868 5866 5864 5862 5860 5859 5857 5855 5853 5851 5849
5801 5807 5809 5813 5817 5822 5826 5830 5835 5838 5842 5846 5849 5852 5855 5858 5860 5862 5864 5865 5866 5867 5868 5868 5868 5868 5868 5868 5867 5867 5866 5865 5864 5863 5861 5859 5858 5856 5854 5852 5850 5849 5846 5844
5796 5800 5804 5808 5812 5816 5820 5825 5829 5833 5837 5840 5844 5847 5850 5852 5855 5856 5858 5859 5861 5861 5862 5863 5863 5863 5863 5863 5862 5861 5861 5860 5859 5858 5856 5854 5853 5851 5849 5847 5845 5843 5841 5840
5790 5795 5799 5803 5807 5811 5815 5819 5823 5827 5830 5834 5838 5841 5844 5846 5849 5851 5852 5854 5855 5856 5856 5857 5857 5857 5857 5857 5857 5856 5856 5855 5853 5852 5851 5849 5847 5845 5844 5842 5840 5838 5836 5834
5785 5790 5794 5798 5801 5805 5809 5813 5817 5821 5825 5828 5832 5835 5838 5840 5843 5845 5846 5848 5849 5850 5851 5851 5851 5852 5852 5852 5851 5851 5850 5849 5848 5846 5845 5843 5841 5840 5838 5837 5835 5833 5831 5829
5780 5784 5788 5792 5796 5800 5804 5808 5811 5815 5819 5822 5825 5829 5832 5834 5836 5838 5840 5842 5844 5844 5845 5846 5846 5846 5846 5846 5845 5845 5844 5843 5842 5840 5839 5838 5836 5835 5833 5831 5829 5827 5825 5823
5774 5779 5783 5787 5791 5795 5798 5802 5806 5809 5813 5816 5819 5823 5825 5828 5830 5832 5834 5836 5838 5839 5840 5841 5841 5841 5840 5840 5839 5839 5838 5837 5836 5834 5833 5832 5830 5829 5827 5825 5823 5821 5820 5817
5768 5773 5777 5781 5785 5789 5792 5796 5800 5803 5807 5810 5813 5816 5819 5821 5824 5826 5828 5830 5831 5833 5834 5834 5835 5835 5835 5834 5833 5833 5832 5831 5830 5829 5827 5826 5825 5823 5821 5820 5818 5815 5813 5811
5763 5767 5771 5775 5779 5782 5786 5790 5793 5797 5800 5804 5807 5810 5812 5814 5817 5819 5821 5823 5825 5826 5827 5828 5829 5829 5829 5828 5828 5827 5826 5825 5824 5823 5822 5820 5819 5817 5815 5814 5812 5809 5807 5805
5757 5761 5765 5769 5773 5776 5780 5783 5787 5790 5794 5797 5800 5802 5805 5808 5810 5812 5814 5816 5818 5819 5821 5822 5822 5823 5823 5822 5822 5821 5820 5819 5818 5817 5816 5814 5813 5811 5810 5807 5805 5803 5801 5798
5751 5755 5759 5763 5766 5770 5773 5777 5780 5783 5787 5789 5792 5795 5798 5801 5803 5805 5807 5809 5811 5812 5814 5815 5816 5816 5816 5816 5815 5815 5814 5813 5812 5811 5809 5808 5807 5805 5803 5801 5799 5796 5794 5791
5744 5749 5753 5756 5760 5764 5767 5770 5774 5777 5780 5783 5785 5788 5791 5793 5796 5798 5800 5802 5804 5806 5807 5808 5809 5809 5809 5809 5809 5808 5807 5806 5805 5804 5803 5801 5800 5799 5797 5795 5792 5790 5787 5785
5739 5743 5747 5750 5754 5758 5761 5764 5767 5770 5774 5776 5779 5782 5785 5787 5789 5792 5794 5796 5797 5799 5800 5801 5802 5802 5802 5802 5802 5801 5800 5799 5798 5797 5796 5795 5793 5792 5790 5788 5786 5783 5781 5778
5733 5737 5741 5744 5748 5751 5755 5758 5762 5765 5768 5770 5773 5776 5778 5781 5783 5786 5788 5789 5791 5792 5793 5794 5795 5795 5795 5795 5795 5794 5794 5793 5792 5791 5789 5788 5786 5785 5783 5781 5779 5776 5774 5771
5727 5731 5734 5738 5742 5745 5749 5752 5755 5758 5761 5764 5767 5770 5772 5775 5777 5779 5781 5783 5784 5785 5787 5787 5788 5788 5789 5788 5788 5788 5787 5786 5785 5784 5783 5782 5780 5779 5777 5775 5772 5770 5767 5764
5721 5725 5728 5732 5735 5739 5743 5746 5749 5752 5755 5758 5761 5764 5766 5768 5770 5772 5774 5776 5777 5779 5780 5781 5781 5782 5782 5782 5782 5781 5781 5780 5779 5778 5777 5775 5774 5772 5770 5768 5765 5763 5760 5757
5715 5719 5722 5726 5729 5733 5736 5740 5743 5746 5749 5752 5755 5757 5759 5762 5764 5766 5767 5769 5771 5772 5773 5774 5774 5775 5775 5775 5775 5775 5774 5774 5773 5772 5770 5769 5767 5765 5763 5761 5759 5756 5753 5750
5709 5713 5716 5720 5723 5727 5730 5733 5737 5740 5743 5745 5748 5750 5752 5755 5757 5759 5761 5763 5764 5765 5767 5767 5768 5768 5769 5769 5768 5768 5768 5767 5766 5765 5763 5762 5760 5758 5756 5754 5752 5749 5746 5743
5705 5708 5711 5715 5718 5721 5724 5727 5730 5733 5735 5738 5741 5744 5746 5748 5751 5753 5754 5756 5757 5759 5760 5761 5761 5762 5762 5762 5761 5761 5761 5760 5759 5758 5757 5755 5753 5752 5749 5747 5745 5742 5739 5735
5699 5703 5706 5709 5712 5716 5719 5721 5724 5727 5729 5732 5735 5737 5740 5742 5744 5746 5748 5749 5751 5752 5753 5754 5755 5755 5755 5755 5755 5754 5754 5753 5752 5751 5750 5748 5747 5745 5742 5740 5738 5735 5732 5728